Regional Weather Roundup
Issued by NWS Green Bay, WI

Home | Current Version | Previous Version | Text Only | Print | Product List | Glossary On
Versions: 1 2 3 4 5 6 7 8 9 10 11 12 13 14 15 16 17 18 19 20 21 22 23 24 25 26 27 28 29 30 31 32 33 34 35 36 37 38 39 40 41 42 43 44 45 46 47 48 49 50
000
ASUS43 KGRB 240211
RWRGRB

NORTH-CENTRAL AND NORTHEAST WISCONSIN REGIONAL WEATHER ROUNDUP
NATIONAL WEATHER SERVICE GREEN BAY WI
800 PM CST FRI FEB 23 2018

WIZ005-009-010>012-018-019-240300-
NORTH CENTRAL WISCONSIN

CITY           SKY/WX    TMP DP  RH WIND       PRES   REMARKS
IRONWOOD       CLOUDY    28  22  78 SW8       30.18R
MANITOWISH WTR CLOUDY    27  25  93 SW6       30.17R
ARBOR VITAE    CLOUDY    29  25  85 W6        30.17R
EAGLE RIVER    CLOUDY    28  22  79 W8        30.16R
LAND O LAKES   CLOUDY    28  24  85 W3        30.17R
RHINELANDER    CLOUDY    28  23  81 W9        30.18R
PHILLIPS       FAIR      25  21  87 SW5       30.19S
ANTIGO         CLOUDY    27  22  80 W12G17    30.19R
TOMAHAWK       CLOUDY    26  22  84 CALM      30.20R
MERRILL        CLOUDY    28  22  79 W8        30.22R
$$

WIZ013-073-240300-
NORTHEAST WISCONSIN

CITY           SKY/WX    TMP DP  RH WIND       PRES   REMARKS
IRON MOUNTAIN  CLOUDY    31  24  75 W7        30.15R
MARINETTE      CLOUDY    34  24  67 NW7       30.21R
OCONTO         CLOUDY    33  25  72 W7        30.21R
$$

WIZ017-030-035>037-045-240300-
CENTRAL WISCONSIN

CITY           SKY/WX    TMP DP  RH WIND       PRES   REMARKS
MEDFORD        CLOUDY    25  21  83 W7        30.21S
WAUSAU         CLOUDY    28  21  75 NW12      30.20R
MOSINEE        CLOUDY    27  23  86 W12G20    30.23R
MARSHFIELD     CLOUDY    27  21  78 W13       30.22R
WISC RAPIDS    CLOUDY    29  20  69 NW6       30.25R
STEVENS POINT  CLOUDY    27  20  75 W9        30.23S
WAUPACA        CLOUDY    33  25  71 W3        30.24R
SHAWANO        CLOUDY    33  25  70 W7        30.21S
CLINTONVILLE   CLOUDY    32  22  67 NW9G18    30.23S
WAUTOMA        CLOUDY    30  23  75 W9        30.25R
$$

WIZ038-039-048-051-240300-
FOX VALLEY

CITY           SKY/WX    TMP DP  RH WIND       PRES   REMARKS
NWS GREEN BAY  CLOUDY    33  23  66 NW16      30.23R
APPLETON       CLOUDY    30  21  69 W14       30.21R
OSHKOSH        CLOUDY    32  25  75 W8        30.23R
FOND DU LAC    CLOUDY    32  24  72 NW10      30.23R
$$

WIZ022-050-052-240300-
EAST CENTRAL WISCONSIN

CITY           SKY/WX    TMP DP  RH WIND       PRES   REMARKS
EPHRAIM        CLOUDY    32  26  79 W7        30.18R
WASHINGTON ISL CLOUDY    33  26  72 W5        30.18R
STURGEON BAY   CLOUDY    33  26  75 MISG      30.20R
MANITOWOC      CLOUDY    33  25  72 MISG      30.23R
SHEBOYGAN      CLOUDY    33  28  81 NW8       30.23R
$$

LMZ563-521-522-541>543-240300-
LAKESHORE

STATION/POSITION TIME  TEMP    WIND        PRES    VSBY  WAVE
                       AIR SEA DIR/SP/G                  HT/PER
                 (UTC) (F)     (DEG/KT/KT) (MB)    (MI)  (FT/S)
SHEBOYGAN LKSHOR 0200   34     310/  9/ 12 1024.3R
KEWAUNEE LKSHORE 0142   34     290/  6/  9 1022.2R
NORTHPORT PIER   0140   35                 1022.0R
SISTER BAY LKSHO 0120   34     290/ 10/ 12   N/A
MENOMINEE LKSHOR 0142   34     270/  7/ 10 1022.3R
$$




USA.gov is the U.S. government's official web portal to all federal, state and local government web resources and services.